Погода Чулпаново

Погода Чулпаново : погода сейчас, прогноз погоды и архив. Всё, что Вы хотите узнать о погоде Чулпаново!

Поиск расширенной информации на нашем сайте:

Полезная информация: Читайте болюсы хуато инструкция здесь!

Другие новости

Новости СМИ2

Главная страница сайта

Новости сайта

03.07.2017

Напоминаем, что на нашем специализированном сайте Метеоцентр.Азия вы можете получить высокодетализированные автоматические прогнозы погоды по пунктам России, СНГ и мира в авиационном формате (включающие направление и скорость ветра, видимость, явления погоды, количество и форму облачности, нижнюю и верхнюю границу облачности).

Рекомендуем: новости Бердичева

Погода Чулпаново - сегодня

Время (UTC), дата Ветер
(°,м/с) 
Видим.   Явления Облачность Т
(°С)
Тd
(°С)
f(%) Тe
(°С)
Pmin
(гПа)
dP
(гПа)
Po
(мм)
O2
(г/м3)
Тmin Tmax R s Состояние
почвы
09 13.01.18 170 (Ю) 20000 м    ясно 
-22.1 -25.1 77 -27  1040.7  -0.4  772  340           
12 13.01.18 180 (Ю) 20000 м    ясно 
-20.6 -23.4 78 -23  1040.4  -0.3  772  338           
15 13.01.18 190 (Ю) 20000 м    ясно 
-22.1 -24.7 79 -27  1039.9  -0.6  772  340    -19.9       
18 13.01.18 180 (Ю) 20000 м    ясно 
-23.4 -26.1 78 -28  1039.2  -0.7  771  342           
21 13.01.18 190 (Ю) 20000 м    ясно 
-20.8 -23.4 80 -24  1038.3  -0.7  771  338           
00 14.01.18 190 (Ю) 20000 м    4/0 верхняя 
[Ci sp]
-22 -24.7 79 -22  1037.2  -1.1  770  339           
03 14.01.18 190 (Ю) 20000 м  {снег}  10/0 средняя 
[Ac As]
-17.5 -19.8 82 -20  1035.6  -1.4  769  333  -24.1    0.0  24  неравномерный
сухой снег
100% 
06 14.01.18 190 (Ю) 10 км  слаб. снег  10/0 средняя 
[Ac trans]
-15.4 -17.5 84 -18  1034.9  -0.6  768  330           
09 14.01.18 170 (Ю) 10 км  слаб. снег  10/0 средняя 
[As op]
-12.1 -14 86 -15  1034.6  -0.2  768  325           
12 14.01.18 190 (Ю) 10 км  слаб. снег  10/0 средняя, верхняя 
[Ac As|Ci sp]
-10.8 -12.6 87 -13  1034.6  0.1  768  324           
15 14.01.18 200 (Ю) 10 км  слаб. снег  10/0 средняя 
[Ac As]
-11.4 -13.1 87 -11  1035.6  769  325    -10.5  0.9     
18 14.01.18 тихо ()   20000 м  {снег}  10/0 средняя 
[Ac As]
-10.7 -12.3 88 -11  1036.2  0.6  769  324           
21 14.01.18 тихо ()   20000 м    10/0 средняя 
[Ac As]
-10.2 -11.9 87 -10  1037.3  1.1  770  324           
00 15.01.18 тихо ()   20000 м    10/0 средняя 
[Ac As]
-10.2 -11.9 87 -10  1038.1  0.8  771  324           
03 15.01.18 040 (СВ) 20000 м    4/0 верхняя 
[Ci sp]
-12.6 -14.3 87 -13  1038.5  0.3  771  327  -12.6    0.0  24  неравномерный
сухой снег
100% 
06 15.01.18 030 (СВ) 10 км    10/0 средняя 
[Ac As]
-12.9 -14.7 86 -13  1039.4  0.8  772  328  -13.6         
09 15.01.18 130 (ЮВ) 10 км    10/0 средняя 
[Ac As]
-10.1 -12.3 84 -10  1039.2  772  324           
12 15.01.18 260 (З) 10 км    10/0 средняя 
[Ac As]
-7.9 -9.6 88 -9  1039  0.1  772  321           
15 15.01.18 240 (ЮЗ) 10 км    10/0 средняя 
[Ac As]
-8.3 -9.6 90 -8  1038.3  -0.7  771  321    -7.6       
18 15.01.18 290 (З) 20000 м    10/0 средняя 
[Ac As]
-7.9 -9.2 90 -9  1037.6  -0.6  771  321           
21 15.01.18 280 (З) 20000 м    10/0 средняя 
[Ac As]
-7.7 -9 90 -10  1037.2  -0.5  770  320           
00 16.01.18 290 (З) 20000 м    10/0 средняя 
[Ac As]
-7.9 -9.2 90 -9  1037.6  -0.6  771  321           
03 16.01.18 270 (З) 20000 м    10/0 средняя 
[Ac As]
-6.7 -8 90 -9  1035  -1.2  769  318  -8.4      24  неравномерный
сухой снег
100% 
06 16.01.18 290 (З) 20000 м    10/0 средняя 
[Ac As]
-6.7 -7.9 91 -9  1034.4  -0.6  768  318           
09 16.01.18 300 (СЗ) 20000 м    10/0 средняя 
[Ac As]
-7.2 -8.5 90 -9  1033.5  -0.9  767  319           
Время (UTC), дата Ветер
(°,м/с) 
Видим.   Явления Облачность Т
(°С)
Тd
(°С)
f(%) Тe
(°С)
Pmin
(гПа)
dP
(гПа)
Po
(мм)
O2
(г/м3)
Тmin Tmax R s Состояние
почвы

Для получения пояснительной информации подведите курсор к названию столбца.

ПОГОДА Чулпаново - архив

Всё, что Вы хотите узнать о погоде Чулпаново - удобно и подробно!

Выберите нужную дату (начиная с 1 января 2015* года) и нажмите кнопку "Найти".
Будут отображены архивные сводки погоды по пункту Чулпаново, начиная с указанной даты.


Отображать данные в формате CSV (для использования в таблицах Excel)


Внимание! Наш архив погоды предназначен исключительно для личного некоммерческого использования в познавательных целях. Если Вам необходимы официальные справки о состоянии погоды (для производственных, юридических, коммерческих и т.п. целей), обращайтесь в органы Росгидромета.

*Примечание: данная дата относится к архиву по метеостанциям СССР (Россия, СНГ, Балтия).
Архив по метеостанциям Зарубежной Европы и Азии (кроме Китая) хранится 10 дней, по другим регионам земного шара (Китай, Африка, Америка, Австралия, Океания) - 1 день.

Чулпаново - район местоположения метеостанции


Название, широта, долгота, высота метеостанции:
Чулпаново 54.5°ш. 50.4°д. 78 м над ур. моря [Российская Федерация]

Дополнительная информация

В oтличие oт бoльшинства пoгoдных сайтoв мы публикуем пoдрoбную метеoинфoрмацию в детальнoм прoфессиoнальнoм фoрмате.

Характеристики температуры и влажнoсти вoздуха измеряются на высoте 2 м в тени вдали oт зданий и деревьев.
Скoрoсть ветра измеряется на высoте 10 м (на урoвне рoста челoвека скoрoсть ветра ниже в 1.5-2 раза). Если метеoстанция нахoдится в гoрoде или в лесу, тo скoрoсть ветра занижена на 2-4 м/с пo сравнению с oткрытым местoм. Скoрoсть ветра над акватoриями крупных рек и oзёр, а также на вершинах хoлмoв на 2-5 м/с выше, чем в oбычных услoвиях.
Атмoсфернoе давление в разных тoчках местнoсти мoжет значительнo oтличаться oт давления на метеoстанции, в зависимoсти oт услoвий рельефа (при пoдъёме на 10 м давление пoнижается примернo на 1 мм рт.ст.).